This is the latest recevied weather packets stored in our database for station/object W4CKA. If no packets are shown the sender has not sent any weather packets the latest 10 day(s).
| Time | Temp. | Humidity | Pressure | Rain* | Wind** | Luminosity | Snow |
|---|---|---|---|---|---|---|---|
| 1778226649 | 5.56° C | 99% | 1058.5 hPa | 0 mm | - | 0 W/m² | - |
| 1778226043 | 5.56° C | 99% | 1058.6 hPa | 0 mm | - | 0 W/m² | - |
| 1778225444 | 5.56° C | 99% | 1058.2 hPa | 0 mm | - | 0 W/m² | - |
| 1778224842 | 5.56° C | 99% | 1058.6 hPa | 0 mm | - | 0 W/m² | - |
| 1778224238 | 5.56° C | 99% | 1058.4 hPa | 0 mm | - | 0 W/m² | - |
| 1778223634 | 5.56° C | 99% | 1058.5 hPa | 0 mm | - | 0 W/m² | - |
| 1778223029 | 5.56° C | 99% | 1058.6 hPa | 0 mm | - | 0 W/m² | - |
| 1778222424 | 5.56° C | 99% | 1058.7 hPa | 0 mm | - | 0 W/m² | - |
| 1778221819 | 5.56° C | 99% | 1058.7 hPa | 0 mm | - | 0 W/m² | - |
| 1778221219 | 5.56° C | 99% | 1058.7 hPa | 0 mm | - | 0 W/m² | - |
| 1778220613 | 5° C | 99% | 1058.4 hPa | 0 mm | - | 0 W/m² | - |
| 1778220014 | 5.56° C | 99% | 1058.7 hPa | 0 mm | - | 0 W/m² | - |
| 1778219412 | 5.56° C | 99% | 1058.6 hPa | 0 mm | - | 0 W/m² | - |
| 1778218812 | 6.67° C | 99% | 1058.5 hPa | 0 mm | - | 0 W/m² | - |
| 1778218207 | 6.67° C | 99% | 1058.6 hPa | 0 mm | - | 0 W/m² | - |
| 1778217606 | 7.22° C | 99% | 1058.7 hPa | 0 mm | - | 0 W/m² | - |
| 1778217003 | 6.67° C | 99% | 1058.6 hPa | 0 mm | - | 0 W/m² | - |
| 1778216403 | 6.67° C | 99% | 1058.2 hPa | 0 mm | - | 0 W/m² | - |
| 1778215797 | 6.67° C | 99% | 1058.5 hPa | 0 mm | - | 0 W/m² | - |
| 1778215195 | 7.78° C | 99% | 1058.5 hPa | 0 mm | - | 0 W/m² | - |
| 1778214595 | 7.22° C | 99% | 1058.1 hPa | 0 mm | - | 0 W/m² | - |
| 1778213990 | 7.22° C | 99% | 1058.1 hPa | 0 mm | - | 0 W/m² | - |
| 1778213389 | 7.78° C | 99% | 1058.1 hPa | 0 mm | - | 0 W/m² | - |
| 1778212784 | 7.78° C | 99% | 1057.9 hPa | 0 mm | - | 0 W/m² | - |
| 1778212183 | 7.78° C | 99% | 1057.9 hPa | 0 mm | - | 0 W/m² | - |
* Rain latest hour (hover to see other rain measurements)
** Current wind speed in m/s (hover to see current wind gust speed)